Nausori, Fiji

9:18 AM +13 on November 21, 2017 (GMT +1300)
Nausori International

Weather History for NFNA - January, 2005

Change the Weather History Date:

Monday, January 31, 2005

  Actual Average Record
Temperature  
Mean Temperature 82 °F -  
Max Temperature 86 °F 88 °F - ()
Min Temperature 75 °F 75 °F - ()
Cooling Degree Days 16    
Growing Degree Days 32 (Base 50)    
Moisture  
Dew Point 75 °F    
Average Humidity 82    
Maximum Humidity 97    
Minimum Humidity 66    
Precipitation  
Precipitation 0.04 in 0.38 in - ()
Sea Level Pressure  
Sea Level Pressure 29.55 in    
Wind  
Wind Speed 8 mph ()    
Max Wind Speed 14 mph    
Max Gust Speed -    
Visibility 12.1 miles    
Events Rain    
T = Trace of Precipitation, MM = Missing Value Source: Averaged Metar Reports

Daily Weather History Graph

Daily Weather History Graph

Search for Another Location

Airport or City:

Trip Planner

Search our weather history database for the weather conditions in past years. The results will help you decide how hot, cold, wet, or windy it might be!

Date:

Astronomy

Jan. 31, 2005 Rise Set
Actual Time 5:51 AM +12 6:46 PM +12
Civil Twilight 5:28 AM +12 7:09 PM +12
Nautical Twilight 5:01 AM +12 7:36 PM +12
Astronomical Twilight 4:33 AM +12 8:04 PM +12
Moon 10:24 PM +12 (1/31) 10:16 AM +12 (1/31)
Length of Visible Light 13h 40m
Length of Day
12h 54m
Waning Gibbous, 73% of the Moon is Illuminated
Jan 31
Waning Gibbous
Feb 2
Last Quarter
Feb 9
New
Feb 16
First Quarter
Feb 24
Full

Hourly Weather History & Observations

Time (+12) Temp. Heat Index Dew Point Humidity Pressure Visibility Wind Dir Wind Speed Gust Speed Precip Events Conditions
12:00 AM 78 °F - 77 °F 96% 29.51 in 31 mi Calm Calm - - Rain Light Rain Showers
3:00 AM 78 °F - 77 °F 97% 29.46 in 12 mi SSW 8.1 mph - - Rain Light Rain Showers
6:00 AM 79 °F - 78 °F 95% 29.48 in 12 mi South 9.2 mph - - Rain Light Rain Showers
8:00 AM 80.6 °F 87.1 °F 77.0 °F 89% 29.50 in 24.9 mi SW 11.5 mph - N/A Rain Light Rain Showers
9:00 AM 82 °F - 78 °F 83%  in 12 mi SW 13.8 mph - - Rain Light Rain Showers
9:00 AM 82.4 °F 90.9 °F 77.0 °F 84% 29.53 in 24.9 mi SW 13.8 mph - N/A   Overcast
10:00 AM 82.4 °F 90.9 °F 77.0 °F 84% 29.53 in 31.1 mi SSW 9.2 mph - N/A   Mostly Cloudy
11:00 AM 80.6 °F 87.1 °F 77.0 °F 89% 29.53 in 31.1 mi SSW 11.5 mph - N/A   Mostly Cloudy
12:00 PM 84 °F - 77 °F 73% 29.55 in 31 mi SW 13.8 mph - -   Partly Cloudy
12:00 PM 84.2 °F 94.1 °F 77.0 °F 79% 29.53 in 31.1 mi SW 13.8 mph - N/A   Mostly Cloudy
1:00 PM 82.4 °F 90.9 °F 77.0 °F 84% 29.56 in 31.1 mi SSW 11.5 mph - N/A   Mostly Cloudy
2:00 PM 80.6 °F 86.2 °F 75.2 °F 84% 29.53 in 12.4 mi SSW 11.5 mph - N/A Rain Light Rain Showers
3:00 PM 82 °F - 73 °F 68% 29.54 in 31 mi SSW 11.5 mph - - Rain Light Rain Showers
3:00 PM 82.4 °F 88.2 °F 73.4 °F 74% 29.53 in 31.1 mi SSW 11.5 mph - N/A   Mostly Cloudy
4:00 PM 82.4 °F 88.2 °F 73.4 °F 74% 29.50 in 31.1 mi SSW 11.5 mph - N/A   Mostly Cloudy
5:00 PM 86.0 °F 93.4 °F 73.4 °F 66% 29.53 in 31.1 mi SW 11.5 mph - N/A   Mostly Cloudy
6:00 PM 82 °F - 73 °F 68% 29.57 in 31 mi SW 11.5 mph - -   Partly Cloudy
6:00 PM 82.4 °F 88.2 °F 73.4 °F 74% 29.56 in 31.1 mi SW 11.5 mph - N/A   Mostly Cloudy
7:00 PM 80.6 °F 85.4 °F 73.4 °F 79% 29.59 in 31.1 mi SW 9.2 mph - N/A   Scattered Clouds
8:00 PM 78.8 °F - 73.4 °F 83% 29.59 in 31.1 mi WSW 5.8 mph - N/A   Mostly Cloudy
9:00 PM 78 °F - 73 °F 79% 29.64 in 31 mi Calm Calm - -   Partly Cloudy
9:00 PM 78.8 °F - 73.4 °F 83% 29.62 in 31.1 mi Calm Calm - N/A   Mostly Cloudy
10:00 PM 77.0 °F - 75.2 °F 94% 29.65 in 31.1 mi Calm Calm - N/A   Mostly Cloudy
11:00 PM 75.2 °F - 73.4 °F 94% 29.65 in 31.1 mi Calm Calm - N/A   Mostly Cloudy